Tracking 19570 objects as of 22-Feb-2019
HD Live streaming from Space Station
objects crossing your sky now

EXPLORER 30

Track EXPLORER 30 now!
10-day predictions
EXPLORER 30 is classified as:


NORAD ID: 1738
Int'l Code: 1965-093A
Perigee: 664.9 km
Apogee: 865.2 km
Inclination: 59.7 °
Period: 100.0 minutes
Semi major axis: 7136 km
RCS: 0.3725 m2 (medium)
Launch date: November 19, 1965
Source: United States (US)
Launch site: WALLOPS ISLAND (WLPIS)
aabbcc
Your satellite tracking list
Your tracking list is empty




NASA's NSSDC Master Catalog

Two Line Element Set (TLE):
1  1738U 65093A   19052.72862102 -.00000098  00000-0  17130-4 0  9991
2  1738  59.7087 320.2393 0140390 110.8362 250.7775 14.40181748792196
Source of the keplerian elements: AFSPC